Simultaneous Nadir Overpasses (SNOs) Predictions

Prediction of SNOs between AQUA and METOP-C Satellite Orbit:

Table of predicted SNOs for the next 14.0 days since TLE Epoch: 9/28/2019
Index Date (AQUA) Time (AQUA) Lat,Lon (AQUA) SZA (AQUA ) Date (METOP-C) Time (METOP-C) Lat,Lon (METOP-C) SZA (METOP-C ) Distance(km) Time Diff (sec)
1 09/30/2019 03:46:04 -73.44, -61.51 103.98 09/30/2019 03:44:54 -73.37, -62.91 104.02 45.01 70
2 09/30/2019 04:35:38 73.77, 105.41 76.39 09/30/2019 04:35:25 73.76, 105.33 76.38 2.88 13
3 09/30/2019 05:25:05 -73.85, -87.12 103.53 09/30/2019 05:26:06 -73.85, -87.14 103.53 0.91 61
4 10/02/2019 23:20:24 -73.65, 4.48 102.67 10/02/2019 23:19:11 -73.62, 4.07 102.69 12.99 73
5 10/03/2019 00:09:54 73.78, 171.82 77.48 10/03/2019 00:09:46 73.81, 171.85 77.51 2.98 8
6 10/03/2019 00:59:21 -73.85, -20.69 102.44 10/03/2019 01:00:28 -73.85, -20.73 102.44 1.42 67
7 10/05/2019 18:54:41 -73.71, 70.78 101.53 10/05/2019 18:53:31 -73.72, 70.72 101.51 2.57 70
8 10/05/2019 19:44:10 73.80,-121.78 78.58 10/05/2019 19:44:08 73.81,-121.74 78.59 1.48 2
9 10/05/2019 20:33:37 -73.86, 45.73 101.35 10/05/2019 20:34:50 -73.85, 45.68 101.36 1.86 73
10 10/08/2019 14:28:56 -73.72, 137.19 100.44 10/08/2019 14:27:52 -73.72, 137.13 100.43 1.87 64
11 10/08/2019 15:18:25 73.82, -55.40 79.68 10/08/2019 15:18:29 73.81, -55.34 79.67 2.48 4
12 10/08/2019 16:07:56 -74.08, 111.67 100.04 10/08/2019 16:09:07 -74.05, 112.57 100.09 27.72 71
13 10/11/2019 10:03:12 -73.74,-156.42 99.35 10/11/2019 10:02:14 -73.72,-156.46 99.37 2.49 58
14 10/11/2019 10:52:40 73.80, 11.09 80.72 10/11/2019 10:52:51 73.81, 11.07 80.73 1.21 11




NCC Satellite Simultaneous Nadir Overpasses (SNOs) Prediction Service
